Wetbulb
68.72 69.32 70.88 71.76 73.07 73.96 73.48 74.80 75.41 75.67 75.76 76.52 77.12 77.47 77.44 77.42 77.33 76.07 76.09 76.55 76.38 75.97 75.77 75.67 77.36 77.04 77.92 76.72 77.27 77.44 77.34 76.56 76.18
69.12 70.10 71.05 71.64 72.48 73.24 72.91 74.47 75.07 75.52 75.88 76.29 76.73 76.72 77.05 77.11 77.20 76.68 76.01 76.49 75.83 73.54 75.55 76.42 77.19 77.31 77.25 76.52 77.04 77.25 77.61 76.35 75.95
69.23 70.27 70.95 71.81 72.71 72.99 74.18 74.57 75.17 74.44 75.47 75.89 76.05 76.08 76.43 76.29 76.36 76.80 76.55 75.97 74.86 75.07 75.84 75.80 76.43 77.07 77.28 77.44 77.59 77.61 78.19 75.77 76.44
69.44 70.14 70.33 71.16 73.09 74.28 74.49 75.21 75.30 75.27 75.54 75.86 75.73 75.17 74.93 75.44 75.77 75.96 73.91 73.19 74.77 75.58 75.56 75.62 75.55 75.84 77.00 77.44 77.10 77.38 78.00 77.31 76.70
68.93 68.58 68.64 69.55 70.36 71.49 72.98 74.19 74.99 75.12 75.66 75.58 76.11 77.03 74.79 73.82 73.91 75.06 74.97 75.32 75.75 76.69 76.21 75.91 76.40 76.22 75.59 76.58 77.32 77.29 76.79 76.43 75.98
67.43 67.59 67.72 67.73 67.93 68.37 69.13 70.09 70.96 71.87 72.68 73.28 73.27 74.10 73.18 73.69 73.38 71.31 70.97 71.56 71.57 72.75 74.00 75.67 76.08 77.00 76.63 76.27 76.61 77.16 76.93 76.99 76.75
66.26 66.21 66.28 66.48 66.68 67.48 68.27 69.26 70.08 70.57 70.73 71.58 72.24 72.23 71.17 71.21 70.65 70.69 70.65 71.82 72.55 72.08 73.06 73.41 73.87 75.13 75.92 76.60 76.39 76.19 76.38 76.85 76.42
65.00 64.97 65.46 65.64 65.71 66.59 67.54 67.76 68.15 68.70 69.52 70.35 70.16 70.26 70.48 70.88 71.74 71.82 72.29 72.86 73.14 72.65 72.77 72.19 72.67 73.32 74.01 75.58 76.16 74.95 73.84 73.47 74.69
64.66 64.65 64.42 64.78 64.86 65.00 65.43 65.82 67.29 67.68 68.46 68.98 69.68 69.48 69.42 70.15 70.70 70.88 71.17 71.52 71.36 72.00 72.49 72.65 72.38 72.31 72.51 73.14 74.43 69.54 68.63 71.91 70.72
64.70 64.68 64.12 64.15 64.39 65.04 65.52 64.39 65.03 65.00 65.95 67.59 68.01 68.45 68.46 68.59 69.27 69.17 69.66 69.98 70.15 70.28 70.61 72.22 71.99 71.92 71.98 72.32 73.10 64.74 66.56 66.92 68.43
65.44 64.39 63.83 64.01 64.27 64.06 64.89 65.33 65.37 66.07 66.49 67.16 67.46 67.67 67.99 68.48 68.74 68.55 69.43 69.35 69.18 69.16 69.04 69.54 70.11 70.87 72.20 71.90 72.46 64.18 63.77 65.74 69.48
64.97 64.53 64.50 64.18 64.42 64.75 65.68 65.78 66.21 66.15 65.85 66.26 66.04 66.18 66.99 68.71 68.79 67.78 68.64 68.56 68.65 68.92 68.52 68.35 69.61 69.68 70.78 71.67 72.48 63.10 62.07 64.27 69.70
63.40 63.65 64.00 63.92 64.39 64.50 64.38 65.22 65.86 65.38 65.03 65.22 64.94 65.61 66.81 67.74 68.47 67.59 67.36 68.48 68.99 69.33 68.44 67.70 67.14 67.47 69.79 67.79 71.28 65.30 61.50 63.55 69.34
63.39 63.57 63.62 64.25 64.04 63.73 64.25 65.31 65.53 64.72 64.66 64.22 65.42 65.89 66.02 66.29 66.83 67.54 68.21 69.01 68.14 67.65 67.27 67.22 67.71 67.48 68.61 69.27 69.05 70.68 60.16 60.07 69.39
62.21 62.27 62.88 63.55 63.18 63.27 64.27 64.92 64.56 63.71 63.38 64.93 65.31 65.10 64.56 64.81 65.74 65.25 65.78 68.15 68.07 67.61 66.42 65.56 65.75 66.79 66.20 66.64 70.01 64.30 62.63 58.62 59.60
61.31 61.77 62.24 62.78 62.48 62.67 63.63 64.22 64.29 62.80 63.75 64.33 64.04 63.36 63.49 63.86 64.60 64.95 65.73 66.58 66.21 64.58 65.90 63.98 63.99 63.17 63.30 63.98 65.64 67.38 59.75 58.97 58.39
60.88 61.51 61.43 62.23 62.32 61.96 62.20 63.26 63.31 63.01 63.17 63.07 62.04 61.64 61.69 62.21 61.34 62.13 63.70 64.15 63.68 61.95 60.89 60.37 60.84 62.11 62.59 63.24 64.36 65.38 66.64 67.09 67.31
60.57 61.03 60.98 60.63 59.45 59.55 59.87 61.41 61.59 61.70 62.56 61.38 59.63 60.48 59.74 60.51 61.94 62.39 62.85 63.85 62.73 62.30 64.54 62.21 62.52 61.79 62.64 62.86 62.96 64.08 58.85 59.27 66.38
56.98 55.72 55.64 56.00 56.27 57.28 58.70 59.46 60.37 61.01 60.20 59.96 58.68 58.53 58.72 58.49 59.68 61.33 60.74 60.80 61.30 56.18 52.98 51.50 50.66 50.16 54.94 62.09 56.89 52.65 49.54 49.00 49.37
54.02 54.73 53.81 53.84 54.50 55.04 55.99 55.89 57.40 58.91 59.40 58.88 57.16 56.94 56.92 57.20 56.12 57.93 58.92 59.02 59.40 58.87 60.01 51.11 49.58 48.31 48.41 47.70 52.22 50.66 47.83 46.10 45.38
MSLP
1006.70 1006.42 1006.91 1007.51 1008.27 1008.79 1009.71 1010.12 1010.74 1011.17 1011.86 1012.62 1013.06 1013.45 1013.89 1014.20 1014.55 1014.67 1014.50 1014.48 1014.35 1014.14 1013.89 1013.86 1014.11 1014.46 1015.04 1015.00 1015.27 1015.26 1015.38 1015.80 1016.08
1007.55 1007.81 1008.28 1008.71 1009.18 1009.54 1009.89 1010.15 1010.55 1010.90 1011.53 1012.22 1012.66 1012.97 1013.63 1013.99 1014.34 1014.68 1014.58 1014.88 1014.97 1014.59 1014.50 1014.08 1014.09 1014.08 1014.28 1014.58 1014.42 1014.87 1015.25 1015.35 1015.35
1008.19 1008.59 1008.69 1008.93 1009.20 1009.60 1009.86 1010.04 1010.37 1010.89 1011.39 1012.02 1012.39 1012.80 1013.32 1013.76 1014.00 1014.44 1014.58 1014.78 1014.81 1014.37 1014.04 1014.15 1013.94 1013.79 1013.72 1013.80 1013.90 1014.24 1014.71 1014.61 1014.78
1008.40 1008.76 1009.14 1009.54 1010.03 1010.12 1010.30 1010.70 1011.00 1011.25 1011.69 1012.16 1012.49 1013.16 1013.62 1013.75 1013.79 1014.03 1014.15 1014.18 1014.22 1014.06 1013.91 1013.65 1013.55 1013.51 1013.38 1013.26 1013.21 1013.42 1013.86 1014.30 1014.38
1009.03 1009.45 1009.76 1010.06 1010.55 1010.91 1011.14 1011.48 1011.98 1012.15 1012.23 1012.45 1012.57 1013.17 1013.46 1013.44 1013.62 1013.80 1013.64 1013.52 1013.51 1013.59 1013.59 1013.45 1013.28 1013.21 1013.17 1012.96 1012.75 1012.65 1012.99 1013.35 1013.64
1009.80 1010.17 1010.41 1010.59 1011.05 1011.49 1011.86 1012.08 1012.59 1012.84 1012.84 1012.88 1012.97 1013.23 1013.09 1013.24 1013.21 1013.18 1013.00 1013.09 1013.03 1012.95 1012.89 1012.76 1012.60 1012.43 1012.47 1012.42 1012.20 1012.20 1012.27 1012.45 1012.92
1010.17 1010.73 1010.98 1011.20 1011.66 1012.20 1012.60 1012.85 1013.11 1013.24 1013.31 1013.28 1013.38 1013.28 1013.20 1013.29 1013.29 1013.14 1012.97 1012.93 1013.03 1012.84 1012.66 1012.37 1012.01 1011.83 1011.82 1011.77 1011.70 1011.85 1012.35 1012.40 1012.42
1010.34 1010.74 1011.10 1011.61 1011.79 1012.19 1012.57 1012.86 1013.18 1013.40 1013.44 1013.45 1013.41 1013.51 1013.51 1013.49 1013.56 1013.53 1013.29 1013.11 1012.99 1012.79 1012.54 1012.18 1012.03 1011.76 1011.45 1011.24 1011.38 1011.77 1012.07 1011.42 1012.17
1010.17 1010.77 1011.37 1011.54 1011.85 1012.18 1012.47 1012.80 1013.07 1013.27 1013.31 1013.39 1013.57 1013.55 1013.38 1013.42 1013.55 1013.60 1013.40 1013.15 1012.94 1012.73 1012.44 1012.14 1011.84 1011.54 1011.28 1011.03 1011.02 1010.96 1011.57 1011.59 1010.92
1010.33 1010.84 1011.11 1011.39 1011.62 1012.01 1012.31 1012.49 1012.72 1012.77 1012.92 1013.15 1013.26 1013.30 1013.24 1013.15 1013.09 1013.03 1012.92 1012.83 1012.62 1012.36 1012.09 1011.75 1011.52 1011.31 1011.09 1010.72 1010.74 1011.06 1010.64 1010.49 1010.28
1010.23 1010.70 1011.15 1011.49 1011.62 1011.84 1012.02 1012.01 1012.13 1012.40 1012.60 1012.80 1012.97 1013.02 1012.95 1012.79 1012.64 1012.43 1012.25 1012.09 1011.98 1011.81 1011.66 1011.35 1011.02 1010.73 1010.55 1010.38 1010.09 1010.53 1010.94 1011.07 1011.03
1010.28 1010.81 1011.18 1011.40 1011.59 1011.83 1012.06 1012.15 1012.15 1012.31 1012.49 1012.60 1012.69 1012.66 1012.58 1012.46 1012.30 1012.17 1011.84 1011.58 1011.42 1011.29 1011.10 1010.81 1010.44 1010.10 1009.76 1009.58 1009.52 1009.78 1010.06 1010.68 1010.23
1010.61 1011.04 1011.25 1011.41 1011.66 1011.87 1011.87 1012.03 1012.11 1012.19 1012.25 1012.23 1012.22 1012.23 1012.11 1011.96 1011.72 1011.54 1011.34 1011.06 1010.85 1010.69 1010.44 1010.12 1009.87 1009.58 1009.19 1008.86 1008.76 1008.99 1009.20 1009.76 1009.76
1011.01 1011.21 1011.53 1011.77 1011.95 1011.87 1011.88 1012.03 1012.07 1012.11 1012.12 1011.92 1011.92 1011.96 1011.83 1011.57 1011.32 1011.04 1010.73 1010.46 1010.28 1010.10 1009.72 1009.29 1009.00 1008.72 1008.45 1008.25 1007.97 1007.71 1007.99 1008.56 1008.76
1011.34 1011.41 1011.47 1011.68 1011.70 1011.69 1011.88 1012.08 1012.18 1012.01 1011.94 1011.95 1012.00 1012.01 1011.72 1011.38 1011.11 1010.64 1009.83 1009.46 1009.50 1009.38 1009.22 1008.86 1008.37 1007.84 1007.37 1006.71 1006.63 1006.66 1007.02 1007.51 1007.84
1011.54 1011.65 1011.67 1011.76 1011.84 1011.75 1011.90 1011.98 1012.03 1011.87 1011.83 1011.88 1011.83 1011.68 1011.28 1010.80 1010.32 1009.91 1009.55 1009.16 1008.92 1008.77 1008.49 1008.04 1007.41 1006.60 1005.74 1005.24 1004.82 1004.81 1005.32 1005.98 1006.52
1012.08 1012.12 1012.08 1012.07 1012.12 1012.04 1011.94 1012.01 1011.94 1011.78 1011.61 1011.78 1011.74 1011.41 1011.01 1010.49 1010.02 1009.49 1008.91 1008.30 1007.94 1007.80 1007.60 1007.18 1006.75 1006.22 1005.33 1004.61 1004.31 1004.11 1004.04 1004.33 1005.27
1012.82 1012.91 1013.06 1013.26 1013.12 1012.81 1012.41 1012.15 1011.85 1011.58 1011.31 1011.61 1011.61 1011.26 1010.84 1010.38 1009.48 1008.86 1008.21 1007.76 1007.28 1007.14 1006.87 1006.86 1006.73 1006.42 1005.78 1004.73 1003.94 1003.82 1004.23 1004.53 1004.18
1014.19 1014.32 1014.43 1014.27 1014.02 1013.48 1012.81 1012.47 1011.99 1011.75 1011.86 1011.68 1011.34 1010.99 1010.59 1010.12 1009.60 1008.42 1007.77 1007.34 1006.71 1006.28 1006.40 1006.40 1006.39 1006.28 1006.33 1005.44 1004.82 1004.40 1004.50 1004.99 1004.87
1015.13 1014.93 1014.87 1014.76 1014.48 1014.05 1013.52 1013.03 1012.39 1011.99 1011.65 1011.41 1011.13 1010.63 1010.31 1009.84 1009.40 1008.51 1007.65 1007.02 1006.39 1005.85 1005.26 1005.37 1005.50 1005.45 1005.38 1005.39 1005.13 1004.39 1004.44 1004.86 1005.05
Wind_Speed
8 8 10 10 10 8 5 8 11 11 10 11 11 12 11 10 11 8 8 9 8 6 7 6 7 8 8 12 12 11 10 9 9
11 11 10 9 8 8 7 8 8 8 8 8 8 9 7 8 7 9 7 7 7 6 8 9 9 9 10 11 11 12 11 9 9
11 10 10 9 7 6 4 3 3 3 6 6 6 6 6 5 6 7 7 6 10 11 10 9 10 11 12 12 12 12 12 11 11
11 11 10 11 10 9 9 9 8 8 7 7 6 5 4 4 5 6 6 7 8 8 10 10 10 11 12 13 13 13 11 13 13
12 12 12 13 13 13 11 11 9 8 7 8 7 7 5 3 4 5 7 7 6 6 9 10 12 11 13 13 13 13 14 14 13
11 11 11 11 11 12 11 12 10 9 7 7 5 3 3 2 3 5 4 5 6 6 7 8 10 10 12 13 13 13 14 14 14
11 10 8 9 10 9 8 8 7 6 6 4 3 1 1 2 5 6 7 7 7 8 8 10 11 10 11 12 12 11 12 12 12
12 10 8 7 7 7 6 5 3 2 2 2 3 4 5 5 5 7 8 9 9 10 10 11 11 11 11 11 10 9 9 11 9
11 9 6 6 5 4 4 3 1 1 2 3 4 6 7 6 6 7 8 9 10 11 11 12 12 12 12 12 8 9 17 15 12
8 7 6 5 4 3 2 4 4 5 5 5 6 8 9 9 9 10 10 10 10 10 11 12 12 13 13 12 9 13 15 16 11
7 6 5 5 5 5 6 7 7 7 8 8 8 10 11 12 13 13 13 11 10 9 10 11 12 13 13 13 11 14 16 16 15
5 5 6 6 6 7 8 10 10 9 10 11 11 12 13 13 13 13 13 14 12 11 10 11 12 13 13 14 14 14 18 13 14
6 5 7 7 9 10 11 11 11 11 12 13 14 14 15 14 14 14 15 14 14 12 12 12 12 15 14 15 16 12 18 18 14
6 8 8 10 11 11 11 11 12 13 14 15 15 15 15 16 16 16 15 15 13 13 13 13 14 15 14 16 17 16 15 19 16
9 11 12 12 12 12 12 12 13 14 15 14 14 14 16 16 17 15 15 14 12 13 13 14 15 15 15 14 15 17 15 17 20
12 14 12 13 14 15 14 13 14 16 15 14 14 15 17 17 16 13 13 13 14 13 13 14 14 14 14 14 13 13 18 17 19
14 14 15 15 15 16 16 15 15 16 14 10 12 14 15 13 12 12 13 12 12 11 11 11 11 12 15 14 13 13 13 11 11
14 15 14 15 15 16 17 16 14 13 11 9 10 13 12 13 11 11 11 12 11 11 12 11 11 11 11 14 14 13 7 8 11
13 12 13 12 14 16 15 14 15 14 12 10 11 10 9 8 10 12 11 10 11 12 15 14 13 15 15 17 19 23 13 7 10
13 13 12 11 13 13 15 12 13 12 12 9 9 8 8 9 9 12 12 11 10 12 12 15 18 19 20 20 24 24 17 12 7
Wind_Direction
100 126 139 157 173 161 168 191 189 191 202 218 216 219 221 224 231 242 256 253 279 266 262 232 209 243 223 237 241 232 215 215 220
96 99 104 116 133 148 173 194 202 199 208 211 213 213 221 228 227 238 257 271 267 264 268 271 240 245 241 241 240 229 228 233 221
111 116 118 104 92 100 128 154 131 209 202 192 194 195 198 213 225 234 245 252 259 267 257 253 271 262 250 239 233 231 228 236 220
118 110 100 94 89 86 92 85 79 97 126 129 139 124 116 187 211 234 239 256 262 257 263 251 247 253 253 244 237 235 223 233 247
110 105 102 96 88 81 78 80 75 69 81 107 121 135 152 169 206 226 247 260 268 268 265 270 267 263 261 254 246 234 237 234 235
125 119 109 99 90 85 79 75 68 71 74 86 111 144 230 268 236 257 284 295 307 314 309 294 283 276 265 261 257 247 235 238 246
130 125 121 110 106 96 93 91 85 77 90 103 107 145 288 281 271 295 305 314 297 307 305 301 301 295 283 274 264 261 257 252 246
152 146 136 121 123 120 115 108 118 123 77 350 323 302 286 287 306 299 296 291 293 297 297 296 297 294 293 286 250 232 229 215 245
162 147 157 159 143 141 152 162 221 318 292 286 286 278 292 301 291 287 284 284 285 287 285 288 286 288 292 292 281 241 184 192 192
170 181 181 178 184 211 291 301 293 295 338 315 309 308 310 309 301 290 277 268 265 269 280 284 279 282 283 281 261 208 206 212 229
193 196 193 221 261 282 284 296 316 325 319 312 305 302 302 303 304 298 292 277 261 262 272 277 278 275 276 279 268 200 223 233 238
200 209 233 255 281 297 308 305 307 301 297 295 292 294 293 290 288 284 281 271 264 268 272 274 275 273 273 268 273 200 215 238 252
227 236 264 293 304 301 292 289 284 287 287 288 289 292 294 295 293 286 278 270 269 272 271 272 267 269 267 265 263 249 214 214 247
290 294 298 301 297 291 295 292 293 293 289 287 296 300 295 292 288 284 277 272 268 269 272 278 277 272 266 264 263 260 217 212 233
301 297 300 300 295 293 295 296 293 290 289 296 298 293 289 287 284 278 275 269 265 266 269 271 271 270 268 262 253 236 237 207 220
305 302 301 304 301 299 298 294 297 296 294 296 294 290 286 283 285 284 280 274 270 269 260 259 265 266 270 271 267 259 213 201 210
309 308 307 307 303 298 298 298 297 293 296 299 288 283 279 280 279 282 278 275 270 265 260 265 266 271 271 270 271 269 269 248 209
309 321 324 324 313 304 301 302 297 286 296 323 306 297 296 290 285 276 284 278 283 286 280 272 277 277 283 281 271 266 349 324 287
329 329 324 316 312 308 304 305 303 310 300 289 283 277 276 277 284 288 289 285 285 257 240 265 266 263 264 274 280 294 308 300 291
318 310 315 328 322 329 328 321 304 305 309 321 320 306 300 291 283 277 276 279 287 295 279 230 245 243 248 244 254 273 280 281 286